Location: Aragnouet
(42.7874°N, 0.2165°E)
Time: 23:40:12
(UTC+00:00)

Meteor 2-3 Rocket - Pass Details

Date: 09 April 2020
Orbit: 842 x 885 km, 81.2° (Epoch: 02 June)

Event Time Altitude Azimuth Distance (km) Brightness Sun altitude
Rises 21:48:41 0° 352° (N) 3,475 7.7 -31.0°
Reaches altitude 10° 21:51:10 10° 355° (N) 2,526 6.8 -31.3°
Enters shadow 21:55:24 48° 15° (NNE) 1,114 4.4 -31.8°
